Regional Weather Roundup
Issued by NWS

Home | Current Version | Previous Version | Text Only | Print | Product List | Glossary Off
Versions: 1 2 3 4 5 6 7 8 9 10 11 12 13 14 15 16 17 18 19 20 21 22 23 24 25 26 27 28 29 30 31 32 33 34 35 36 37 38 39 40 41 42 43 44 45 46 47 48 49 50

000
ASUS45 KCYS 052210
RWRWY

WYOMING REGIONAL WEATHER ROUNDUP
NATIONAL WEATHER SERVICE CHEYENNE WY
400 PM MDT SUN JUL 05 2015

NOTE:  "FAIR" INDICATES FEW OR NO CLOUDS BELOW 12,000 FEET
WITH NO SIGNIFICANT WEATHER AND/OR OBSTRUCTIONS TO VISIBILITY.

WYZ001-052300-
YELLOWSTONE NATIONAL PARK

CITY           SKY/WX    TMP DP  RH WIND       PRES   REMARKS
LK YELLOWSTONE   N/A     62  47  57 VRB3      30.25S
W YELLOWSTONE  NOT AVBL

$$
WYZ002>013-054>058-071-098>099-052300-
NORTHERN WYOMING

CITY           SKY/WX    TMP DP  RH WIND       PRES   REMARKS
JACKSON        CLOUDY    70  54  56 S8        30.15F
CODY           CLOUDY    55  54  94 N10G16    30.15R
GREYBULL       LGT RAIN  60  57  89 NW13      30.09R FOG
WORLAND        RAIN      60  58  92 N6        30.11R FOG
SHERIDAN       RAIN      57  54  89 NW12      30.12R FOG
BUFFALO        LGT RAIN  57  56  96 N17G26    30.14R FOG
GILLETTE       CLOUDY    62  58  86 N20G25    30.07S FOG
HULETT         RAIN      63  61  94 N8        30.08R
NEWCASTLE      FAIR      73  55  53 N17G31    29.95R

$$
WYZ014>020-022>026-101>103-052300-
CENTRAL WYOMING

CITY           SKY/WX    TMP DP  RH WIND       PRES   REMARKS
BIG PINEY      CLOUDY    63  50  62 E3        30.22S
PINEDALE       CLOUDY    63  52  67 NW5       30.22S
DUBOIS         CLOUDY    59  52  77 CALM      30.22R
LANDER         LGT RAIN  62  58  86 N10       30.13R FOG
RIVERTON       LGT RAIN  62  57  83 N16       30.13R
CASPER         CLOUDY    63  55  75 N12       30.11R
DOUGLAS        CLOUDY    67  57  70 NW17G25   30.07R

$$
WYZ021-027>030-104>119-052300-
SOUTHERN WYOMING

CITY           SKY/WX    TMP DP  RH WIND       PRES   REMARKS
EVANSTON       FAIR      70  58  65 NW9       30.20F
KEMMERER       CLOUDY    63  54  72 W9        30.23S
FORT BRIDGER   RAIN      63  63 100 NW9G20    30.25R
ROCK SPRINGS   LGT RAIN  58  56  93 N5        30.20F
DIXON          MOCLDY    69  56  62 SW3       30.19F
RAWLINS        LGT RAIN  63  53  70 W16       30.19R
SARATOGA       DRIZZLE   63  59  88 W5        30.21S
LARAMIE        LGT RAIN  57  54  89 NE15      30.18F
CHEYENNE       LGT RAIN  63  59  87 N7        30.12S FOG
TORRINGTON     FAIR      85  58  39 NW18G30   29.89R
PINE BLUFFS    FAIR      68  59  73 NW21G28   29.99R

$$



USA.gov is the U.S. government's official web portal to all federal, state and local government web resources and services.